| time (UTC) | temp F | wind direction | speed knots | gust knots | rain 1hr in | rain 24hr in | rain mn in | humidity % | barometer mb |
| 20260508033348 | 72 | 79 | 1.7 | 1.7 | 0.00 | 0.00 | 0.00 | 96 | 1017.2 |
| 20260508032845 | 72 | 80 | 2.6 | 2.6 | 0.00 | 0.00 | 0.00 | 96 | 1017.1 |
| 20260508032343 | 72 | 79 | 1.7 | 1.7 | 0.00 | 0.00 | 0.00 | 96 | 1017.2 |
| 20260508031839 | 72 | 76 | 1.7 | 2.6 | 0.00 | 0.00 | 0.00 | 96 | 1017.2 |
| 20260508031336 | 72 | 83 | 1.7 | 1.7 | 0.00 | 0.00 | 0.00 | 96 | 1017.3 |
| 20260508030832 | 72 | 79 | 1.7 | 2.6 | 0.00 | 0.00 | 0.00 | 96 | 1017.4 |
| 20260508030330 | 73 | 78 | 1.7 | 2.6 | 0.00 | 0.00 | 0.00 | 95 | 1017.2 |
| 20260508025826 | 73 | 57 | 0.9 | 1.7 | 0.00 | 0.00 | 0.00 | 96 | 1017.4 |
| 20260508025323 | 73 | 88 | 1.7 | 1.7 | 0.00 | 0.00 | 0.00 | 95 | 1017.7 |
| 20260508024820 | 73 | 94 | 0.0 | 1.7 | 0.00 | 0.00 | 0.00 | 95 | 1017.3 |
| 20260508024317 | 73 | 73 | 0.9 | 1.7 | 0.00 | 0.00 | 0.00 | 95 | 1017.3 |
| 20260508023814 | 73 | 55 | 0.9 | 1.7 | 0.00 | 0.00 | 0.00 | 95 | 1017.1 |
| 20260508023310 | 73 | 45 | 1.7 | 2.6 | 0.00 | 0.00 | 0.00 | 95 | 1017.2 |
| 20260508022807 | 73 | 81 | 1.7 | 1.7 | 0.00 | 0.00 | 0.00 | 95 | 1017.3 |
| 20260508022306 | 73 | 86 | 0.9 | 1.7 | 0.00 | 0.00 | 0.00 | 95 | 1017.2 |
| 20260508021800 | 73 | 72 | 1.7 | 2.6 | 0.00 | 0.00 | 0.00 | 95 | 1017.3 |
| 20260508021256 | 73 | 76 | 1.7 | 1.7 | 0.00 | 0.00 | 0.00 | 95 | 1017.3 |
| 20260508020752 | 73 | 78 | 1.7 | 2.6 | 0.00 | 0.00 | 0.00 | 95 | 1017.3 |
| 20260508020250 | 73 | 85 | 1.7 | 2.6 | 0.00 | 0.00 | 0.00 | 94 | 1017.3 |
| 20260508015747 | 73 | 68 | 1.7 | 1.7 | 0.00 | 0.00 | 0.00 | 95 | 1017.1 |
| 20260508015244 | 73 | 88 | 1.7 | 1.7 | 0.00 | 0.00 | 0.00 | 95 | 1017.2 |
| 20260508014741 | 73 | 80 | 0.9 | 2.6 | 0.00 | 0.00 | 0.00 | 94 | 1017.1 |
| 20260508014238 | 74 | 59 | 0.9 | 1.7 | 0.00 | 0.00 | 0.00 | 94 | 1017.2 |
| 20260508013733 | 74 | 91 | 1.7 | 1.7 | 0.00 | 0.00 | 0.00 | 94 | 1017.3 |
| 20260508013230 | 74 | 78 | 2.6 | 2.6 | 0.00 | 0.00 | 0.00 | 94 | 1017.1 |
| 20260508012728 | 74 | 63 | 0.9 | 1.7 | 0.00 | 0.00 | 0.00 | 94 | 1016.9 |
| 20260508012224 | 74 | 93 | 1.7 | 1.7 | 0.00 | 0.00 | 0.00 | 94 | 1016.9 |
| 20260508011723 | 74 | 78 | 1.7 | 1.7 | 0.00 | 0.00 | 0.00 | 94 | 1017.0 |
| 20260508011220 | 74 | 63 | 0.9 | 2.6 | 0.00 | 0.00 | 0.00 | 94 | 1016.8 |
| 20260508010716 | 74 | 76 | 1.7 | 1.7 | 0.00 | 0.00 | 0.00 | 94 | 1017.0 |
| 20260508010214 | 74 | 87 | 1.7 | 1.7 | 0.00 | 0.00 | 0.00 | 94 | 1017.0 |
| 20260508005711 | 74 | 87 | 1.7 | 1.7 | 0.00 | 0.00 | 0.00 | 93 | 1016.9 |
| 20260508005208 | 74 | 58 | 1.7 | 1.7 | 0.00 | 0.00 | 0.00 | 93 | 1016.9 |
| 20260508004703 | 75 | 83 | 1.7 | 2.6 | 0.00 | 0.00 | 0.00 | 93 | 1016.8 |
| 20260508004200 | 75 | 94 | 1.7 | 2.6 | 0.00 | 0.00 | 0.00 | 93 | 1017.0 |
| 20260508003657 | 75 | 96 | 1.7 | 1.7 | 0.00 | 0.00 | 0.00 | 92 | 1016.9 |
| 20260508003154 | 75 | 76 | 1.7 | 1.7 | 0.00 | 0.00 | 0.00 | 92 | 1016.5 |
| 20260508002650 | 75 | 86 | 1.7 | 1.7 | 0.00 | 0.00 | 0.00 | 92 | 1016.6 |
| 20260508002149 | 75 | 84 | 1.7 | 2.6 | 0.00 | 0.00 | 0.00 | 92 | 1016.5 |
| 20260508001643 | 75 | 87 | 1.7 | 1.7 | 0.00 | 0.00 | 0.00 | 91 | 1016.5 |
| 20260508001140 | 75 | 81 | 1.7 | 2.6 | 0.00 | 0.00 | 0.00 | 91 | 1016.5 |
| 20260508000636 | 75 | 81 | 1.7 | 1.7 | 0.00 | 0.00 | 0.00 | 90 | 1016.5 |
| 20260508000133 | 75 | 92 | 1.7 | 3.5 | 0.00 | 0.00 | 0.00 | 90 | 1016.5 |
| 20260507235630 | 76 | 73 | 1.7 | 2.6 | 0.00 | 0.00 | 0.00 | 90 | 1016.3 |
| 20260507235127 | 76 | 83 | 1.7 | 2.6 | 0.00 | 0.00 | 0.00 | 89 | 1016.4 |
| 20260507234624 | 75 | 58 | 1.7 | 1.7 | 0.00 | 0.00 | 0.00 | 89 | 1016.2 |
| 20260507234120 | 76 | 85 | 0.9 | 1.7 | 0.00 | 0.00 | 0.00 | 89 | 1016.3 |
| 20260507233617 | 76 | 77 | 1.7 | 1.7 | 0.00 | 0.00 | 0.00 | 88 | 1016.1 |
| 20260507233116 | 76 | 69 | 1.7 | 2.6 | 0.00 | 0.00 | 0.00 | 87 | 1016.2 |
| 20260507232612 | 77 | 70 | 0.9 | 1.7 | 0.00 | 0.00 | 0.00 | 87 | 1015.9 |
| 20260507232109 | 77 | 86 | 1.7 | 1.7 | 0.00 | 0.00 | 0.00 | 86 | 1016.1 |
| 20260507231605 | 78 | 94 | 1.7 | 2.6 | 0.00 | 0.00 | 0.00 | 84 | 1015.8 |
| 20260507231103 | 78 | 71 | 1.7 | 2.6 | 0.00 | 0.00 | 0.00 | 83 | 1015.6 |
| 20260507230559 | 78 | 130 | 0.0 | 0.9 | 0.00 | 0.00 | 0.00 | 83 | 1015.4 |
| 20260507230056 | 79 | 89 | 0.0 | 1.7 | 0.00 | 0.00 | 0.00 | 83 | 1015.3 |
| 20260507225551 | 79 | 113 | 0.9 | 1.7 | 0.00 | 0.00 | 0.00 | 81 | 1015.3 |
| 20260507225047 | 79 | 79 | 1.7 | 1.7 | 0.00 | 0.00 | 0.00 | 80 | 1015.1 |
| 20260507224543 | 80 | 78 | 1.7 | 2.6 | 0.00 | 0.00 | 0.00 | 80 | 1015.2 |
| 20260507224040 | 80 | 64 | 2.6 | 3.5 | 0.00 | 0.00 | 0.00 | 79 | 1015.3 |
| 20260507223536 | 80 | 55 | 1.7 | 6.1 | 0.00 | 0.00 | 0.00 | 79 | 1015.4 |
| 20260507223033 | 80 | 68 | 0.0 | 4.3 | 0.00 | 0.00 | 0.00 | 79 | 1015.3 |
| 20260507222530 | 81 | 142 | 1.7 | 3.5 | 0.00 | 0.00 | 0.00 | 78 | 1015.4 |
| 20260507222027 | 81 | 79 | 1.7 | 4.3 | 0.00 | 0.00 | 0.00 | 78 | 1015.3 |
| 20260507221523 | 81 | 102 | 3.5 | 5.2 | 0.00 | 0.00 | 0.00 | 78 | 1015.2 |
| 20260507221020 | 81 | 70 | 2.6 | 2.6 | 0.00 | 0.00 | 0.00 | 78 | 1015.5 |
| 20260507220517 | 82 | 202 | 2.6 | 5.2 | 0.00 | 0.00 | 0.00 | 77 | 1015.2 |
| 20260507220015 | 82 | 14 | 1.7 | 4.3 | 0.00 | 0.00 | 0.00 | 76 | 1015.2 |
| 20260507215510 | 82 | 85 | 1.7 | 6.1 | 0.00 | 0.00 | 0.00 | 75 | 1015.2 |
| 20260507215009 | 82 | 73 | 1.7 | 7.8 | 0.00 | 0.00 | 0.00 | 73 | 1015.2 |
| 20260507214505 | 82 | 1 | 1.7 | 5.2 | 0.00 | 0.00 | 0.00 | 73 | 1014.8 |
| 20260507214001 | 83 | 99 | 6.1 | 7.8 | 0.00 | 0.00 | 0.00 | 72 | 1014.7 |
| 20260507213458 | 84 | 78 | 5.2 | 10.4 | 0.00 | 0.00 | 0.00 | 71 | 1014.7 |
| 20260507212955 | 84 | 177 | 2.6 | 9.6 | 0.00 | 0.00 | 0.00 | 70 | 1014.8 |
| 20260507212450 | 84 | 95 | 4.3 | 5.2 | 0.00 | 0.00 | 0.00 | 71 | 1014.8 |
| 20260507211948 | 84 | 277 | 0.9 | 8.7 | 0.00 | 0.00 | 0.00 | 71 | 1014.8 |
| 20260507211444 | 84 | 228 | 4.3 | 7.8 | 0.00 | 0.00 | 0.00 | 70 | 1014.7 |
| 20260507210941 | 84 | 230 | 6.1 | 13.0 | 0.00 | 0.00 | 0.00 | 70 | 1014.7 |
| 20260507210438 | 84 | 191 | 6.1 | 14.8 | 0.00 | 0.00 | 0.00 | 73 | 1014.7 |
| 20260507205935 | 86 | 217 | 7.0 | 11.3 | 0.00 | 0.00 | 0.00 | 70 | 1014.8 |
| 20260507205432 | 86 | 71 | 0.9 | 9.6 | 0.00 | 0.00 | 0.00 | 70 | 1014.8 |
| 20260507204928 | 85 | 85 | 7.0 | 7.0 | 0.00 | 0.00 | 0.00 | 72 | 1014.5 |
| 20260507204424 | 86 | 218 | 3.5 | 10.4 | 0.00 | 0.00 | 0.00 | 70 | 1014.6 |
| 20260507203922 | 86 | 238 | 0.0 | 8.7 | 0.00 | 0.00 | 0.00 | 69 | 1014.5 |
| 20260507203420 | 86 | 179 | 0.9 | 6.1 | 0.00 | 0.00 | 0.00 | 69 | 1014.6 |
| 20260507202916 | 86 | 182 | 3.5 | 14.8 | 0.00 | 0.00 | 0.00 | 68 | 1014.6 |
| 20260507202413 | 87 | 203 | 7.0 | 13.9 | 0.00 | 0.00 | 0.00 | 67 | 1014.5 |
| 20260507201908 | 86 | 249 | 5.2 | 10.4 | 0.00 | 0.00 | 0.00 | 67 | 1014.6 |
| 20260507201404 | 87 | 30 | 3.5 | 4.3 | 0.00 | 0.00 | 0.00 | 68 | 1014.9 |
| 20260507200901 | 85 | 204 | 5.2 | 9.6 | 0.00 | 0.00 | 0.00 | 71 | 1014.6 |
| 20260507200356 | 84 | 326 | 1.7 | 5.2 | 0.00 | 0.00 | 0.00 | 73 | 1014.7 |
| 20260507195852 | 84 | 225 | 6.1 | 7.8 | 0.00 | 0.00 | 0.00 | 73 | 1014.9 |
| 20260507195350 | 84 | 206 | 6.1 | 10.4 | 0.00 | 0.00 | 0.00 | 72 | 1014.7 |
| 20260507194847 | 85 | 108 | 1.7 | 4.3 | 0.00 | 0.00 | 0.00 | 72 | 1014.9 |
| 20260507194343 | 85 | 23 | 4.3 | 5.2 | 0.00 | 0.00 | 0.00 | 71 | 1014.9 |
| 20260507193840 | 85 | 79 | 1.7 | 7.8 | 0.00 | 0.00 | 0.00 | 72 | 1014.9 |
| 20260507193337 | 85 | 218 | 7.8 | 13.0 | 0.00 | 0.00 | 0.00 | 71 | 1015.0 |
| 20260507192833 | 86 | 91 | 3.5 | 10.4 | 0.00 | 0.00 | 0.00 | 71 | 1015.2 |
| 20260507192330 | 86 | 212 | 6.1 | 18.2 | 0.00 | 0.00 | 0.00 | 70 | 1015.1 |
| 20260507191826 | 86 | 191 | 2.6 | 13.0 | 0.00 | 0.00 | 0.00 | 70 | 1015.1 |
| 20260507191322 | 85 | 207 | 4.3 | 13.9 | 0.00 | 0.00 | 0.00 | 71 | 1015.2 |
| 20260507190819 | 86 | 177 | 0.9 | 7.0 | 0.00 | 0.00 | 0.00 | 70 | 1015.2 |
| 20260507190318 | 86 | 178 | 3.5 | 12.2 | 0.00 | 0.00 | 0.00 | 72 | 1015.1 |
| 20260507185816 | 86 | 89 | 3.5 | 5.2 | 0.00 | 0.00 | 0.00 | 72 | 1015.2 |
| 20260507185313 | 85 | 83 | 2.6 | 10.4 | 0.00 | 0.00 | 0.00 | 72 | 1015.4 |
| 20260507184810 | 86 | 60 | 7.8 | 8.7 | 0.00 | 0.00 | 0.00 | 73 | 1015.3 |
| 20260507184308 | 86 | 111 | 7.0 | 9.6 | 0.00 | 0.00 | 0.00 | 71 | 1015.4 |
| 20260507183804 | 87 | 57 | 5.2 | 7.0 | 0.00 | 0.00 | 0.00 | 70 | 1015.3 |
| 20260507183302 | 86 | 188 | 1.7 | 12.2 | 0.00 | 0.00 | 0.00 | 71 | 1015.3 |
| 20260507182759 | 87 | 124 | 5.2 | 11.3 | 0.00 | 0.00 | 0.00 | 70 | 1015.4 |
| 20260507182254 | 86 | 156 | 3.5 | 10.4 | 0.00 | 0.00 | 0.00 | 70 | 1015.4 |
| 20260507181751 | 87 | 89 | 6.1 | 12.2 | 0.00 | 0.00 | 0.00 | 70 | 1015.5 |
| 20260507181247 | 86 | 115 | 3.5 | 10.4 | 0.00 | 0.00 | 0.00 | 71 | 1015.6 |
| 20260507180744 | 86 | 82 | 3.5 | 7.8 | 0.00 | 0.00 | 0.00 | 71 | 1015.6 |
| 20260507180241 | 87 | 118 | 4.3 | 10.4 | 0.00 | 0.00 | 0.00 | 70 | 1015.6 |
| 20260507175736 | 87 | 106 | 3.5 | 3.5 | 0.00 | 0.00 | 0.00 | 70 | 1015.7 |
| 20260507175233 | 87 | 99 | 6.1 | 14.8 | 0.00 | 0.00 | 0.00 | 72 | 1015.9 |
| 20260507174731 | 87 | 199 | 4.3 | 13.0 | 0.00 | 0.00 | 0.00 | 72 | 1015.7 |
| 20260507174229 | 87 | 61 | 7.8 | 9.6 | 0.00 | 0.00 | 0.00 | 71 | 1016.2 |
| 20260507173726 | 86 | 124 | 4.3 | 8.7 | 0.00 | 0.00 | 0.00 | 72 | 1016.0 |
| 20260507173222 | 86 | 82 | 7.0 | 12.2 | 0.00 | 0.00 | 0.00 | 72 | 1016.2 |
| 20260507172719 | 86 | 87 | 5.2 | 9.6 | 0.00 | 0.00 | 0.00 | 72 | 1016.1 |
| 20260507172216 | 86 | 51 | 3.5 | 8.7 | 0.00 | 0.00 | 0.00 | 71 | 1016.3 |
| 20260507171716 | 85 | 92 | 6.1 | 9.6 | 0.00 | 0.00 | 0.00 | 74 | 1016.5 |
| 20260507171214 | 86 | 165 | 3.5 | 12.2 | 0.00 | 0.00 | 0.00 | 73 | 1016.6 |
| 20260507170710 | 85 | 181 | 2.6 | 10.4 | 0.00 | 0.00 | 0.00 | 73 | 1016.5 |
| 20260507170208 | 86 | 83 | 7.8 | 8.7 | 0.00 | 0.00 | 0.00 | 71 | 1016.6 |
| 20260507165703 | 86 | 57 | 7.0 | 12.2 | 0.00 | 0.00 | 0.00 | 72 | 1016.8 |
| 20260507165200 | 85 | 215 | 3.5 | 13.0 | 0.00 | 0.00 | 0.00 | 72 | 1017.0 |
| 20260507164656 | 86 | 139 | 2.6 | 7.8 | 0.00 | 0.00 | 0.00 | 72 | 1017.0 |
| 20260507164153 | 85 | 81 | 7.8 | 10.4 | 0.00 | 0.00 | 0.00 | 74 | 1016.9 |
| 20260507163650 | 85 | 133 | 7.0 | 9.6 | 0.00 | 0.00 | 0.00 | 75 | 1017.2 |
| 20260507163148 | 84 | 105 | 4.3 | 10.4 | 0.00 | 0.00 | 0.00 | 75 | 1017.3 |
| 20260507162643 | 86 | 143 | 2.6 | 7.0 | 0.00 | 0.00 | 0.00 | 73 | 1017.3 |
| 20260507162140 | 85 | 197 | 1.7 | 11.3 | 0.00 | 0.00 | 0.00 | 75 | 1017.3 |
| 20260507161636 | 84 | 138 | 2.6 | 9.6 | 0.00 | 0.00 | 0.00 | 75 | 1017.3 |
| 20260507161133 | 84 | 95 | 8.7 | 9.6 | 0.00 | 0.00 | 0.00 | 74 | 1017.4 |
| 20260507160629 | 85 | 242 | 3.5 | 10.4 | 0.00 | 0.00 | 0.00 | 75 | 1017.4 |
| 20260507160126 | 84 | 128 | 1.7 | 4.3 | 0.00 | 0.00 | 0.00 | 78 | 1017.5 |
| 20260507155621 | 84 | 148 | 5.2 | 12.2 | 0.00 | 0.00 | 0.00 | 75 | 1017.7 |
| 20260507155118 | 83 | 98 | 4.3 | 13.0 | 0.00 | 0.00 | 0.00 | 76 | 1017.4 |
| 20260507154615 | 84 | 103 | 2.6 | 10.4 | 0.00 | 0.00 | 0.00 | 73 | 1017.5 |
| 20260507154112 | 84 | 15 | 0.9 | 12.2 | 0.00 | 0.00 | 0.00 | 74 | 1017.6 |
| 20260507153609 | 85 | 81 | 3.5 | 13.0 | 0.00 | 0.00 | 0.00 | 73 | 1017.6 |
| 20260507153106 | 85 | 78 | 7.8 | 11.3 | 0.00 | 0.00 | 0.00 | 71 | 1017.7 |
| 20260507152602 | 85 | 226 | 9.6 | 13.9 | 0.00 | 0.00 | 0.00 | 73 | 1017.7 |
| 20260507152058 | 86 | 336 | 0.9 | 8.7 | 0.00 | 0.00 | 0.00 | 71 | 1017.7 |
| 20260507151554 | 85 | 228 | 5.2 | 9.6 | 0.00 | 0.00 | 0.00 | 73 | 1017.7 |
| 20260507151051 | 85 | 139 | 6.1 | 12.2 | 0.00 | 0.00 | 0.00 | 71 | 1017.9 |
| 20260507150548 | 85 | 98 | 6.1 | 8.7 | 0.00 | 0.00 | 0.00 | 71 | 1017.6 |
| 20260507150045 | 86 | 83 | 6.1 | 12.2 | 0.00 | 0.00 | 0.00 | 70 | 1017.8 |
| 20260507145540 | 86 | 96 | 5.2 | 6.1 | 0.00 | 0.00 | 0.00 | 71 | 1017.8 |
| 20260507145038 | 85 | 79 | 3.5 | 7.8 | 0.00 | 0.00 | 0.00 | 73 | 1017.6 |
| 20260507144534 | 86 | 332 | 0.0 | 11.3 | 0.00 | 0.00 | 0.00 | 72 | 1017.9 |
| 20260507144032 | 86 | 103 | 4.3 | 10.4 | 0.00 | 0.00 | 0.00 | 74 | 1017.6 |
| 20260507143529 | 86 | 99 | 7.8 | 11.3 | 0.00 | 0.00 | 0.00 | 73 | 1017.7 |
| 20260507143026 | 86 | 130 | 5.2 | 9.6 | 0.00 | 0.00 | 0.00 | 73 | 1017.8 |
| 20260507142522 | 86 | 105 | 4.3 | 10.4 | 0.00 | 0.00 | 0.00 | 73 | 1017.9 |
| 20260507142019 | 85 | 136 | 3.5 | 10.4 | 0.00 | 0.00 | 0.00 | 72 | 1018.0 |
| 20260507141515 | 85 | 89 | 0.9 | 9.6 | 0.00 | 0.00 | 0.00 | 72 | 1018.1 |
| 20260507141011 | 85 | 114 | 5.2 | 10.4 | 0.00 | 0.00 | 0.00 | 72 | 1018.0 |
| 20260507140508 | 84 | 148 | 3.5 | 9.6 | 0.00 | 0.00 | 0.00 | 74 | 1018.0 |
| 20260507140006 | 85 | 173 | 2.6 | 11.3 | 0.00 | 0.00 | 0.00 | 73 | 1018.1 |
| 20260507135502 | 84 | 345 | 0.9 | 6.1 | 0.00 | 0.00 | 0.00 | 78 | 1018.1 |
| 20260507134959 | 83 | 242 | 1.7 | 5.2 | 0.00 | 0.00 | 0.00 | 78 | 1017.9 |
| 20260507134456 | 83 | 153 | 2.6 | 7.8 | 0.00 | 0.00 | 0.00 | 77 | 1018.2 |
| 20260507133952 | 83 | 66 | 2.6 | 7.0 | 0.00 | 0.00 | 0.00 | 76 | 1017.9 |
| 20260507133448 | 84 | 82 | 4.3 | 6.1 | 0.00 | 0.00 | 0.00 | 75 | 1018.0 |
| 20260507132947 | 85 | 129 | 1.7 | 8.7 | 0.00 | 0.00 | 0.00 | 72 | 1017.8 |
| 20260507132442 | 86 | 115 | 7.8 | 11.3 | 0.00 | 0.00 | 0.00 | 70 | 1017.9 |
| 20260507131938 | 85 | 87 | 7.8 | 8.7 | 0.00 | 0.00 | 0.00 | 72 | 1017.7 |
| 20260507131436 | 85 | 33 | 2.6 | 8.7 | 0.00 | 0.00 | 0.00 | 74 | 1017.4 |
| 20260507130933 | 85 | 85 | 5.2 | 7.0 | 0.00 | 0.00 | 0.00 | 73 | 1017.6 |
| 20260507130430 | 85 | 250 | 3.5 | 8.7 | 0.00 | 0.00 | 0.00 | 74 | 1017.7 |
| 20260507125929 | 84 | 249 | 1.7 | 9.6 | 0.00 | 0.00 | 0.00 | 75 | 1017.6 |
| 20260507125426 | 84 | 219 | 0.0 | 4.3 | 0.00 | 0.00 | 0.00 | 75 | 1017.5 |
| 20260507124924 | 84 | 82 | 3.5 | 5.2 | 0.00 | 0.00 | 0.00 | 76 | 1017.6 |
| 20260507124419 | 83 | 95 | 4.3 | 9.6 | 0.00 | 0.00 | 0.00 | 76 | 1017.7 |
| 20260507123918 | 83 | 147 | 1.7 | 4.3 | 0.00 | 0.00 | 0.00 | 78 | 1017.6 |
| 20260507123415 | 83 | 43 | 1.7 | 7.0 | 0.00 | 0.00 | 0.00 | 81 | 1017.7 |
| 20260507122911 | 83 | 84 | 3.5 | 3.5 | 0.00 | 0.00 | 0.00 | 79 | 1017.7 |
| 20260507122406 | 84 | 63 | 0.0 | 4.3 | 0.00 | 0.00 | 0.00 | 79 | 1017.5 |
| 20260507121903 | 84 | 160 | 0.9 | 5.2 | 0.00 | 0.00 | 0.00 | 78 | 1017.4 |
| 20260507121358 | 83 | 353 | 1.7 | 3.5 | 0.00 | 0.00 | 0.00 | 81 | 1017.2 |
| 20260507120855 | 82 | 297 | 0.0 | 4.3 | 0.00 | 0.00 | 0.00 | 83 | 1017.1 |
| 20260507120352 | 82 | 75 | 0.9 | 2.6 | 0.00 | 0.00 | 0.00 | 83 | 1017.1 |
| 20260507115848 | 82 | 79 | 0.9 | 4.3 | 0.00 | 0.00 | 0.00 | 85 | 1017.3 |
| 20260507115343 | 81 | 205 | 0.9 | 2.6 | 0.00 | 0.00 | 0.00 | 84 | 1017.2 |
| 20260507114839 | 82 | 190 | 1.7 | 2.6 | 0.00 | 0.00 | 0.00 | 83 | 1017.1 |
| 20260507114337 | 82 | 209 | 0.0 | 1.7 | 0.00 | 0.00 | 0.00 | 81 | 1017.2 |
| 20260507113834 | 83 | 60 | 0.0 | 1.7 | 0.00 | 0.00 | 0.00 | 81 | 1017.0 |
| 20260507113331 | 83 | 94 | 1.7 | 1.7 | 0.00 | 0.00 | 0.00 | 81 | 1017.0 |
| 20260507112829 | 81 | 89 | 0.0 | 1.7 | 0.00 | 0.00 | 0.00 | 85 | 1016.9 |
| 20260507112326 | 80 | 67 | 2.6 | 2.6 | 0.00 | 0.00 | 0.00 | 87 | 1016.8 |
| 20260507111824 | 80 | 229 | 0.0 | 1.7 | 0.00 | 0.00 | 0.00 | 86 | 1016.7 |
| 20260507111320 | 80 | 114 | 0.0 | 0.9 | 0.00 | 0.00 | 0.00 | 90 | 1016.8 |
| 20260507110816 | 79 | 124 | 0.0 | 0.0 | 0.00 | 0.00 | 0.00 | 93 | 1016.9 |
| 20260507110312 | 77 | 101 | 0.0 | 1.7 | 0.00 | 0.00 | 0.00 | 95 | 1016.8 |
| 20260507105809 | 76 | 84 | 1.7 | 1.7 | 0.00 | 0.00 | 0.00 | 96 | 1016.9 |
| 20260507105307 | 75 | 80 | 0.9 | 1.7 | 0.00 | 0.00 | 0.00 | 97 | 1017.1 |
| 20260507104803 | 74 | 75 | 0.9 | 1.7 | 0.00 | 0.00 | 0.00 | 97 | 1016.8 |
| 20260507104259 | 73 | 64 | 0.9 | 1.7 | 0.00 | 0.00 | 0.00 | 98 | 1016.9 |
| 20260507103755 | 72 | 89 | 1.7 | 1.7 | 0.00 | 0.00 | 0.00 | 97 | 1016.8 |
| 20260507103252 | 72 | 57 | 0.9 | 2.6 | 0.00 | 0.00 | 0.00 | 97 | 1016.8 |
| 20260507102748 | 71 | 62 | 1.7 | 2.6 | 0.00 | 0.00 | 0.00 | 97 | 1016.8 |
| 20260507102245 | 71 | 62 | 0.9 | 1.7 | 0.00 | 0.00 | 0.00 | 97 | 1016.6 |
| 20260507101741 | 71 | 64 | 1.7 | 1.7 | 0.00 | 0.00 | 0.00 | 97 | 1016.6 |
| 20260507101236 | 71 | 57 | 1.7 | 1.7 | 0.02 | 0.00 | 0.00 | 97 | 1016.4 |
| 20260507100734 | 71 | 65 | 0.9 | 2.6 | 0.02 | 0.00 | 0.00 | 97 | 1016.4 |
| 20260507100232 | 71 | 40 | 1.7 | 1.7 | 0.00 | 0.00 | 0.00 | 97 | 1016.4 |
| 20260507095730 | 71 | 37 | 1.7 | 2.6 | 0.00 | 0.00 | 0.00 | 97 | 1016.5 |
| 20260507095226 | 71 | 57 | 0.9 | 1.7 | 0.00 | 0.00 | 0.00 | 97 | 1016.6 |
| 20260507094723 | 71 | 64 | 0.9 | 1.7 | 0.00 | 0.00 | 0.00 | 97 | 1016.5 |
| 20260507094220 | 71 | 78 | 1.7 | 1.7 | 0.00 | 0.00 | 0.00 | 97 | 1016.5 |
| 20260507093717 | 71 | 51 | 1.7 | 1.7 | 0.00 | 0.00 | 0.00 | 97 | 1016.4 |
| 20260507093215 | 71 | 89 | 0.0 | 1.7 | 0.00 | 0.00 | 0.00 | 97 | 1016.5 |
| 20260507092712 | 71 | 86 | 1.7 | 1.7 | 0.00 | 0.00 | 0.00 | 97 | 1016.6 |
| 20260507092209 | 71 | 53 | 1.7 | 1.7 | 0.00 | 0.00 | 0.00 | 97 | 1016.5 |
| 20260507091705 | 71 | 75 | 1.7 | 2.6 | 0.00 | 0.00 | 0.00 | 97 | 1016.4 |
| 20260507091201 | 71 | 44 | 0.0 | 1.7 | 0.00 | 0.00 | 0.00 | 97 | 1016.5 |
| 20260507090657 | 71 | 32 | 0.0 | 0.9 | 0.00 | 0.00 | 0.00 | 97 | 1016.5 |
| 20260507090154 | 72 | 86 | 1.7 | 2.6 | 0.00 | 0.00 | 0.00 | 97 | 1016.6 |
| 20260507085651 | 71 | 92 | 1.7 | 2.6 | 0.00 | 0.00 | 0.00 | 97 | 1016.4 |
| 20260507085148 | 72 | 92 | 1.7 | 2.6 | 0.00 | 0.00 | 0.00 | 97 | 1016.5 |
| 20260507084645 | 72 | 81 | 1.7 | 2.6 | 0.00 | 0.00 | 0.00 | 97 | 1016.6 |
| 20260507084141 | 72 | 66 | 0.9 | 1.7 | 0.00 | 0.00 | 0.00 | 97 | 1016.5 |
| 20260507083638 | 72 | 72 | 1.7 | 1.7 | 0.00 | 0.00 | 0.00 | 97 | 1016.4 |
| 20260507083135 | 72 | 62 | 0.0 | 0.9 | 0.00 | 0.00 | 0.00 | 97 | 1016.5 |
| 20260507082631 | 72 | 58 | 1.7 | 1.7 | 0.00 | 0.00 | 0.00 | 97 | 1016.5 |
| 20260507082127 | 72 | 80 | 1.7 | 1.7 | 0.00 | 0.00 | 0.00 | 97 | 1016.3 |
| 20260507081624 | 72 | 82 | 1.7 | 1.7 | 0.00 | 0.00 | 0.00 | 97 | 1016.3 |
| 20260507081121 | 72 | 52 | 1.7 | 1.7 | 0.00 | 0.00 | 0.00 | 97 | 1016.2 |
| 20260507080617 | 72 | 48 | 0.9 | 2.6 | 0.00 | 0.00 | 0.00 | 97 | 1016.4 |
| 20260507080115 | 72 | 74 | 1.7 | 2.6 | 0.00 | 0.00 | 0.00 | 97 | 1016.4 |
| 20260507075614 | 72 | 74 | 1.7 | 1.7 | 0.00 | 0.00 | 0.00 | 97 | 1016.3 |
| 20260507075111 | 72 | 40 | 1.7 | 2.6 | 0.00 | 0.00 | 0.00 | 97 | 1016.5 |
| 20260507074608 | 72 | 85 | 1.7 | 1.7 | 0.00 | 0.00 | 0.00 | 97 | 1016.3 |
| 20260507074106 | 72 | 65 | 1.7 | 1.7 | 0.00 | 0.00 | 0.00 | 97 | 1016.2 |
| 20260507073602 | 72 | 57 | 0.9 | 1.7 | 0.00 | 0.00 | 0.00 | 97 | 1016.3 |
| 20260507073058 | 73 | 68 | 1.7 | 1.7 | 0.00 | 0.00 | 0.00 | 97 | 1016.3 |
| 20260507072556 | 73 | 49 | 0.9 | 1.7 | 0.00 | 0.00 | 0.00 | 97 | 1016.4 |
| 20260507072053 | 73 | 33 | 1.7 | 1.7 | 0.00 | 0.00 | 0.00 | 97 | 1016.5 |
| 20260507071551 | 73 | 65 | 1.7 | 1.7 | 0.00 | 0.00 | 0.00 | 97 | 1016.4 |
| 20260507071047 | 73 | 46 | 1.7 | 1.7 | 0.00 | 0.00 | 0.00 | 97 | 1016.5 |
| 20260507070544 | 73 | 77 | 1.7 | 2.6 | 0.00 | 0.00 | 0.00 | 97 | 1016.5 |
| 20260507070041 | 73 | 84 | 1.7 | 1.7 | 0.00 | 0.00 | 0.00 | 97 | 1016.5 |
| 20260507065537 | 73 | 53 | 0.0 | 1.7 | 0.00 | 0.00 | 0.00 | 97 | 1016.9 |
| 20260507065034 | 73 | 84 | 1.7 | 1.7 | 0.00 | 0.00 | 0.00 | 97 | 1016.7 |
| 20260507064532 | 73 | 60 | 1.7 | 1.7 | 0.00 | 0.00 | 0.00 | 97 | 1016.7 |
| 20260507064031 | 73 | 81 | 1.7 | 1.7 | 0.00 | 0.00 | 0.00 | 97 | 1016.8 |
| 20260507063527 | 73 | 71 | 1.7 | 1.7 | 0.00 | 0.00 | 0.00 | 97 | 1016.8 |
| 20260507063025 | 73 | 53 | 1.7 | 1.7 | 0.00 | 0.00 | 0.00 | 97 | 1016.8 |
| 20260507062521 | 73 | 72 | 1.7 | 2.6 | 0.00 | 0.00 | 0.00 | 97 | 1016.8 |
| 20260507062019 | 73 | 61 | 1.7 | 2.6 | 0.00 | 0.00 | 0.00 | 97 | 1017.0 |
| 20260507061517 | 73 | 60 | 1.7 | 2.6 | 0.00 | 0.00 | 0.00 | 97 | 1017.0 |
| 20260507061015 | 73 | 57 | 1.7 | 1.7 | 0.00 | 0.00 | 0.00 | 96 | 1017.1 |
| 20260507060512 | 73 | 76 | 1.7 | 2.6 | 0.00 | 0.00 | 0.00 | 96 | 1017.1 |
| 20260507060009 | 73 | 74 | 1.7 | 2.6 | 0.00 | 0.00 | 0.00 | 96 | 1017.3 |
| 20260507055503 | 74 | 52 | 0.9 | 1.7 | 0.00 | 0.00 | 0.00 | 96 | 1017.2 |
| 20260507055000 | 74 | 89 | 0.0 | 1.7 | 0.00 | 0.00 | 0.00 | 97 | 1017.4 |
| 20260507054456 | 74 | 125 | 0.9 | 1.7 | 0.00 | 0.00 | 0.00 | 97 | 1017.2 |
| 20260507053953 | 73 | 95 | 0.9 | 1.7 | 0.00 | 0.00 | 0.00 | 96 | 1017.4 |
| 20260507053451 | 74 | 45 | 1.7 | 2.6 | 0.00 | 0.00 | 0.00 | 96 | 1017.5 |
| 20260507052949 | 74 | 52 | 0.9 | 1.7 | 0.00 | 0.00 | 0.00 | 96 | 1017.5 |
| 20260507052447 | 74 | 80 | 1.7 | 1.7 | 0.00 | 0.00 | 0.00 | 96 | 1017.7 |
| 20260507051943 | 74 | 64 | 1.7 | 2.6 | 0.00 | 0.00 | 0.00 | 96 | 1017.6 |
| 20260507051441 | 74 | 75 | 1.7 | 1.7 | 0.00 | 0.00 | 0.00 | 96 | 1017.7 |
| 20260507050938 | 74 | 73 | 1.7 | 1.7 | 0.00 | 0.00 | 0.00 | 96 | 1017.7 |
| 20260507050434 | 74 | 87 | 1.7 | 1.7 | 0.00 | 0.00 | 0.00 | 96 | 1017.9 |
| 20260507045931 | 74 | 94 | 1.7 | 2.6 | 0.00 | 0.00 | 0.00 | 96 | 1018.2 |
| 20260507045428 | 74 | 69 | 1.7 | 2.6 | 0.00 | 0.00 | 0.00 | 96 | 1018.2 |
| 20260507044925 | 74 | 69 | 0.9 | 1.7 | 0.00 | 0.00 | 0.00 | 96 | 1018.3 |
| 20260507044422 | 74 | 58 | 1.7 | 1.7 | 0.00 | 0.00 | 0.00 | 96 | 1018.3 |
| 20260507043918 | 74 | 73 | 1.7 | 1.7 | 0.00 | 0.00 | 0.00 | 96 | 1018.3 |
| 20260507043414 | 74 | 89 | 0.9 | 1.7 | 0.00 | 0.00 | 0.00 | 96 | 1018.5 |
| 20260507042910 | 74 | 83 | 1.7 | 1.7 | 0.00 | 0.00 | 0.00 | 96 | 1018.5 |
| 20260507042407 | 74 | 69 | 1.7 | 2.6 | 0.00 | 0.00 | 0.00 | 96 | 1018.4 |
| 20260507041903 | 74 | 79 | 1.7 | 1.7 | 0.00 | 0.00 | 0.00 | 95 | 1018.4 |
| 20260507041400 | 75 | 72 | 2.6 | 2.6 | 0.00 | 0.00 | 0.00 | 96 | 1018.7 |
| 20260507040857 | 75 | 97 | 2.6 | 2.6 | 0.00 | 0.00 | 0.00 | 95 | 1018.8 |
| 20260507040353 | 75 | 80 | 0.9 | 1.7 | 0.00 | 0.00 | 0.00 | 95 | 1018.7 |
| 20260507035849 | 75 | 104 | 1.7 | 1.7 | 0.00 | 0.00 | 0.00 | 95 | 1018.8 |
| 20260507035345 | 75 | 87 | 0.9 | 1.7 | 0.00 | 0.00 | 0.00 | 96 | 1018.8 |
| 20260507034843 | 75 | 39 | 0.9 | 1.7 | 0.00 | 0.00 | 0.00 | 96 | 1018.8 |
| 20260507034339 | 75 | 89 | 2.6 | 2.6 | 0.00 | 0.00 | 0.00 | 96 | 1018.9 |
| 20260507033837 | 75 | 322 | 0.0 | 1.7 | 0.00 | 0.00 | 0.00 | 96 | 1018.9 |